Regional Weather Roundup
Issued by NWS

Home | Current Version | Previous Version | Text Only | Print | Product List | Glossary Off
Versions: 1 2 3 4 5 6 7 8 9 10 11 12 13 14 15 16 17 18 19 20 21 22 23 24 25 26 27 28 29 30 31 32 33 34 35 36 37 38 39 40 41 42 43 44 45 46 47 48 49 50

000
ASUS45 KPSR 200610
RWRAZ

ARIZONA REGIONAL HOURLY WEATHER ROUNDUP
NATIONAL WEATHER SERVICE PHOENIX AZ
1100 PM MST TUE AUG 19 2014

NOTE: FAIR INDICATES FEW OR NO CLOUDS BELOW 12,000 FEET WITH NO
SIGNIFICANT WEATHER AND/OR OBSTRUCTIONS TO VISIBILITY.

AZZ001>003-036-200700-
NORTHWEST ARIZONA

CITY           SKY/WX    TMP DP  RH WIND       PRES   REMARKS
BULLHEAD CITY  CLEAR     75  66  73 SE5       29.75R
KINGMAN        CLEAR     67  56  67 SE18G24   29.92R
6HR MIN TEMP:  67; 6HR MAX TEMP:  74; 6HR PCP:  0.05;

$$

AZZ004>008-015-016-018-200700-
NORTH CENTRAL ARIZONA

CITY           SKY/WX    TMP DP  RH WIND       PRES   REMARKS
GRAND CANYON     N/A    N/A N/A N/A MISG        N/A
WILLIAMS       CLEAR     50  48  93 SE7       30.22R
PRESCOTT       CLEAR     58  54  86 CALM      30.08R
6HR MIN TEMP:  58; 6HR MAX TEMP:  70; 6HR PCP:  0.05;

FLAGSTAFF      MOCLDY    52  50  93 CALM      30.18S
6HR MIN TEMP:  52; 6HR MAX TEMP:  60;

PAYSON         CLOUDY    63  59  88 CALM      30.11R
PAGE           PTCLDY    69  60  73 CALM      29.98R
6HR MIN TEMP:  69; 6HR MAX TEMP:  74;

$$

AZZ009>014-017-200700-
NORTHEAST ARIZONA

CITY           SKY/WX    TMP DP  RH WIND       PRES   REMARKS
WINSLOW        MOCLDY    62  56  80 SE6       30.04S
6HR MIN TEMP:  62; 6HR MAX TEMP:  76;

SAINT JOHNS    PTCLDY    62  51  67 SW10      30.09S
6HR MIN TEMP:  62; 6HR MAX TEMP:  68; 6HR PCP: TRACE;

WINDOW ROCK    PTCLDY    59  52  77 S6        30.15R
6HR MIN TEMP:  59; 6HR MAX TEMP:  71;

SHOW LOW       MOCLDY    55  50  82 SW10      30.18R
$$

AZZ023-200700-
GREATER PHOENIX AREA

CITY           SKY/WX    TMP DP  RH WIND       PRES   REMARKS
PHOENIX        LGT RAIN  78  64  61 SE5       29.83F
6HR MIN TEMP:  74; 6HR MAX TEMP:  89; 6HR PCP:  0.18;

BUCKEYE          N/A     75  66  73 E8        29.83S
LUKE AFB       NOT AVBL
6HR MIN TEMP:  72; 6HR MAX T  64  66 E9        29.84F
6HR MIN TEMP:  75; 6HR MAX TEMP:  85; 6HR PCP:  0.04;

SCOTTSDALE     CLOUDY    76  67  73 E5        29.87F
6HR MIN TEMP:  75; 6HR MAX TEMP:  87; 6HR PCP:  0.01;

MESA-GATEWAY   MOCLDY    79  61  53 CALM      29.90R
$$

AZZ027-028-200700-
SOUTHWEST MARICOPA COUNTY AND PINAL COUNTY

CITY           SKY/WX    TMP DP  RH WIND       PRES   REMARKS
CASA GRANDE    PTCLDY    79  63  57 NE8       29.89S
6HR MIN TEMP:  77; 6HR MAX TEMP:  91; 6HR PCP:  0.02;

$$

AZZ503-504-507>509-200700-
SOUTHEAST ARIZONA

CITY           SKY/WX    TMP DP  RH WIND       PRES   REMARKS
TUCSON         PTCLDY    73  65  75 SE5       29.98S
6HR MIN TEMP:  73; 6HR MAX TEMP:  87; 6HR PCP:  0.10;

DAVIS-MONTHAN  PTCLDY    72  64  75 SE8       29.96R
6HR MIN TEMP:  71; 6HR MAX TEMP:  84; 6HR PCP:  0.02;

NOGALES        PTCLDY    66  61  84 CALM      30.05F
6HR MIN TEMP:  66; 6HR MAX TEMP:  77; 6HR PCP: TRACE;

SIERRA VISTA   CLOUDY    66  63  88 S9        30.09F
                                      6HR PCP:  0.84;

DOUGLAS        CLOUDY    64  63  96 SE6       30.07S
6HR MIN TEMP:  64; 6HR MAX TEMP:  66; 6HR PCP:  0.13;

SAFFORD        PTCLDY    66  63  90 NE6       30.00R
6HR MIN TEMP:  65; 6HR MAX TEMP:  69; 6HR PCP:  0.02;

$$

AZZ020-021-025-026-031-200700-
SOUTHWEST ARIZONA

CITY           SKY/WX    TMP DP  RH WIND       PRES   REMARKS
YUMA           PTCLDY    89  67  47 S12       29.74S
6HR MIN TEMP:  89; 6HR MAX TEMP: 105;

$$

CAZ031-033-041-043-047-048-061-200700-
SOUTHERN CALIFORNIA

CITY           SKY/WX    TMP DP  RH WIND       PRES   REMARKS
DOWNTOWN L.A.  CLOUDY    70  61  73 CALM      29.87F
6HR MIN TEMP:  70; 6HR MAX TEMP:  75;

L.A. AIRPORT   CLOUDY    69  60  73 W6        29.88F
6HR MIN TEMP:  68; 6HR MAX TEMP:  71;

SAN DIEGO      PTCLDY    69  59  70 NW3       29.90S
6HR MIN TEMP:  69; 6HR MAX TEMP:  73;

BURBANK        CLOUDY    68  60  75 CALM      29.89S
6HR MIN TEMP:  68; 6HR MAX TEMP:  76;

ONTARIO        CLOUDY    67  60  78 W7        29.90R
6HR MIN TEMP:  67; 6HR MAX TEMP:  82;

RIVERSIDE      CLEAR     67  60  78 W3        29.89S
6HR MIN TEMP:  67; 6HR MAX TEMP:  80;

PALM SPRINGS   CLEAR     85  49  28 NW13      29.75S
6HR MIN TEMP:  85; 6HR MAX TEMP: 102;

EL CENTRO NAS  PTCLDY    88  37  16 W16       29.71R
6HR MIN TEMP:  87; 6HR MAX TEMP: 106;

IMPERIAL       CLEAR     86  39  19 W12       29.71R
6HR MIN TEMP:  86; 6HR MAX TEMP: 105;

BLYTHE         CLEAR     92  49  22 SW10      29.72R
6HR MIN TEMP:  90; 6HR MAX TEMP: 105;

NEEDLES        CLEAR     85  59  41 W3        29.75R
6HR MIN TEMP:  82; 6HR MAX TEMP:  91;

$$

NVZ020-UTZ003-200700-
SOUTHERN NEVADA-UTAH

CITY           SKY/WX    TMP DP  RH WIND       PRES   REMARKS
LAS VEGAS      MOCLDY    82  53  36 E3        29.77S
6HR MIN TEMP:  82; 6HR MAX TEMP:  90;

SALT LAKE CITY CLOUDY    69  57  65 SE8       29.88F
6HR MIN TEMP:  69; 6HR MAX TEMP:  74; 6HR PCP: TRACE;

$$

NMZ009-TXZ055-200700-
NEW MEXICO-WEST TEXAS

CITY           SKY/WX    TMP DP  RH WIND       PRES   REMARKS
ALBUQUERQUE    MOCLDY    69  52  54 S7        30.05R
6HR MIN TEMP:  69; 6HR MAX TEMP:  86;

EL PASO        MOCLDY    73  59  61 SW17      29.97R
6HR MIN TEMP:  73; 6HR MAX TEMP:  81;

$$


........................KEY........................
SKY/WX - SKY CONDITION/WEATHER
TMP    - TEMPERATURE IN FAHRENHEIT
DP     - DEW POINT IN FAHRENHEIT
RH     - RELATIVE HUMIDITY IN PERCENT
WIND   - DIRECTION AND SPEED IN MILES PER HOUR (MPH)
VRB    - VARIABLE WIND DIRECTION
PRES   - MEAN SEA LEVEL PRESSURE IN INCHES OF MERCURY
         F - FALLING PRESSURE   R - RISING PRESSURE
         S - STEADY PRESSURE
VSB    - VISIBILITY IN MILES
HX     - HEAT INDEX IN FAHRENHEIT
WCI    - WIND CHILL INDEX IN FAHRENHEIT
TC     - TEMPERATURE IN CELSIUS WHICH IS ALSO KNOWN AS
         TEMPERATURE IN CENTIGRADE
AFB    - AIR FORCE BASE
         LUKE AFB IS LUKE AIR FORCE BASE
         DAVIS-MONTHAN IS DAVIS-MONTHAN AIR FORCE BASE
NAS    - NAVAL AIR STATION
         EL CENTRO NAS IS EL CENTRO NAVAL AIR STATION
N/A    - NOT AVAILABLE



USA.gov is the U.S. government's official web portal to all federal, state and local government web resources and services.